DW6064 Weather Reports


time (UTC)temp
F
wind
direction
speed
knots
gust
knots
rain 1hr
in
rain 24hr
in
rain mn
in
humidity
%
barometer
mb
20260508004540 61 263 1.7 3.5 0.00 0.00 0.00 40 1009.1
20260508004037 61 282 1.7 3.5 0.00 0.00 0.00 40 1009.0
20260508003531 61 289 1.7 4.3 0.00 0.00 0.00 40 1009.0
20260508003049 62 299 2.6 7.0 0.00 0.00 0.00 39 1008.9
20260508002540 62 259 3.5 7.8 0.00 0.00 0.00 38 1008.8
20260508002033 62 254 1.7 8.7 0.00 0.00 0.00 38 1008.8
20260508001525 62 279 5.2 9.6 0.00 0.00 0.00 38 1008.7
20260508001105 63 241 6.1 9.6 0.00 0.00 0.00 37 1008.7
20260508000541 63 269 4.3 8.7 0.00 0.00 0.00 38 1008.6
20260508000041 63 288 1.7 7.8 0.00 0.00 0.00 38 1008.5
20260507235533 63 310 3.5 7.0 0.00 0.00 0.00 38 1008.4
20260507235024 64 303 2.6 8.7 0.00 0.00 0.00 38 1008.4
20260507234542 64 280 4.3 8.7 0.00 0.00 0.00 35 1008.4
20260507234059 64 296 3.5 9.6 0.00 0.00 0.00 36 1008.4
20260507233526 64 319 6.1 9.6 0.00 0.00 0.00 36 1008.3
20260507233044 65 271 4.3 9.6 0.00 0.00 0.00 35 1008.4
20260507232534 65 261 4.3 8.7 0.00 0.00 0.00 35 1008.3
20260507232027 65 268 4.3 12.2 0.00 0.00 0.00 34 1008.2
20260507231604 66 275 6.1 13.0 0.00 0.00 0.00 33 1008.2
20260507231103 66 309 7.0 13.0 0.00 0.00 0.00 33 1008.1
20260507230534 66 326 6.1 19.1 0.00 0.00 0.00 34 1008.0
20260507230029 66 313 8.7 19.1 0.00 0.00 0.00 33 1008.0
20260507225605 66 321 4.3 13.0 0.00 0.00 0.00 34 1007.8
20260507225037 66 336 6.1 14.8 0.00 0.00 0.00 33 1007.8
20260507224531 66 284 8.7 14.8 0.00 0.00 0.00 31 1007.7
20260507224026 67 307 4.3 13.0 0.00 0.00 0.00 34 1007.7
20260507223542 67 318 5.2 13.0 0.00 0.00 0.00 33 1007.7
20260507223042 67 328 3.5 13.0 0.00 0.00 0.00 33 1007.6
20260507222538 68 319 6.1 13.0 0.00 0.00 0.00 34 1007.6
20260507222033 68 288 7.0 13.0 0.00 0.00 0.00 32 1007.5
20260507221526 68 355 6.1 12.2 0.00 0.00 0.00 32 1007.5
20260507221104 68 323 7.0 12.2 0.00 0.00 0.00 31 1007.5
20260507220600 69 334 7.0 12.2 0.00 0.00 0.00 32 1007.4
20260507220038 69 332 5.2 9.6 0.00 0.00 0.00 32 1007.4
20260507215530 70 325 3.5 10.4 0.00 0.01 0.00 29 1007.3
20260507215026 70 304 6.1 15.6 0.00 0.01 0.00 31 1007.3
20260507214542 70 328 9.6 15.6 0.00 0.01 0.00 30 1007.3
20260507214042 71 330 5.2 11.3 0.00 0.01 0.00 31 1007.2
20260507213534 72 299 5.2 10.4 0.00 0.01 0.00 29 1007.1
20260507213027 72 340 6.1 12.2 0.00 0.01 0.00 30 1007.0
20260507212543 72 342 3.5 13.0 0.00 0.01 0.00 30 1007.2
20260507212043 72 301 7.0 13.0 0.00 0.01 0.00 29 1007.1
20260507211536 72 303 3.5 11.3 0.00 0.01 0.00 29 1007.2
20260507211037 72 325 3.5 11.3 0.00 0.01 0.00 29 1007.3
20260507210555 72 300 5.2 15.6 0.00 0.01 0.00 31 1007.1
20260507210027 72 239 7.8 15.6 0.00 0.01 0.00 29 1007.1
20260507205542 72 282 5.2 10.4 0.00 0.01 0.00 28 1007.1
20260507205041 72 241 5.2 9.6 0.00 0.01 0.00 29 1007.1
20260507204531 72 329 4.3 13.9 0.00 0.01 0.00 29 1007.4
20260507204025 73 323 7.0 13.9 0.00 0.01 0.00 28 1007.4
20260507203543 73 321 6.1 9.6 0.00 0.01 0.00 30 1007.4
20260507203037 72 318 1.7 12.2 0.00 0.01 0.00 30 1007.4
20260507202528 72 332 7.8 12.2 0.00 0.01 0.00 30 1007.4
20260507202047 72 286 0.9 8.7 0.00 0.01 0.00 31 1007.4
20260507201545 72 275 4.3 8.7 0.00 0.01 0.00 29 1007.4
20260507201043 72 252 5.2 8.7 0.00 0.01 0.00 30 1007.5
20260507200542 72 190 2.6 7.0 0.00 0.01 0.00 31 1007.5
20260507200037 72 280 3.5 7.8 0.00 0.01 0.00 32 1007.5
20260507195530 71 319 2.6 5.2 0.00 0.01 0.00 31 1007.6
20260507195025 71 296 1.7 6.1 0.00 0.01 0.00 31 1007.5
20260507194604 72 236 0.9 6.1 0.00 0.01 0.00 29 1007.7
20260507194036 72 342 3.5 8.7 0.00 0.01 0.00 33 1007.8
20260507193530 73 261 3.5 11.3 0.00 0.01 0.00 33 1007.9
20260507193026 72 257 3.5 12.2 0.00 0.01 0.00 31 1008.0
20260507192542 72 274 6.1 12.2 0.00 0.01 0.00 32 1008.1
20260507192036 72 265 4.3 10.4 0.00 0.01 0.00 35 1008.2
20260507191530 72 248 3.5 10.4 0.00 0.01 0.00 34 1008.1
20260507191106 71 298 4.3 10.4 0.00 0.01 0.00 32 1008.3
20260507190538 71 245 6.1 10.4 0.00 0.01 0.00 34 1008.3
20260507190041 71 360 3.5 10.4 0.00 0.01 0.00 29 1008.3
20260507185538 71 32 5.2 10.4 0.00 0.01 0.00 32 1008.4
20260507185035 71 167 3.5 8.7 0.00 0.01 0.00 29 1008.4
20260507184529 71 277 3.5 12.2 0.00 0.01 0.00 35 1008.5
20260507184032 70 323 6.1 12.2 0.00 0.01 0.00 35 1008.6
20260507183526 71 281 2.6 8.7 0.00 0.01 0.00 32 1008.6
20260507183043 71 240 2.6 4.3 0.00 0.01 0.00 35 1008.6
20260507182601 70 294 0.9 7.8 0.00 0.01 0.00 36 1008.6
20260507182036 70 224 1.7 7.8 0.00 0.01 0.00 32 1008.7
20260507181530 70 350 4.3 7.0 0.00 0.01 0.00 36 1008.8
20260507181027 69 338 2.6 4.3 0.00 0.01 0.00 34 1008.8
20260507180540 69 230 0.9 6.1 0.00 0.01 0.00 38 1008.9
20260507180033 68 252 1.7 7.8 0.00 0.01 0.00 36 1009.0
20260507175525 68 275 4.3 7.8 0.00 0.01 0.00 34 1009.0
20260507175047 68 265 1.7 6.1 0.00 0.01 0.00 36 1009.1
20260507174541 67 297 2.6 6.1 0.00 0.01 0.00 32 1009.2
20260507174042 67 244 3.5 6.1 0.00 0.01 0.00 33 1009.3
20260507173600 68 284 0.9 6.1 0.00 0.01 0.00 34 1009.3
20260507173035 68 144 1.7 6.1 0.00 0.01 0.00 35 1009.4
20260507172525 68 76 1.7 8.7 0.00 0.01 0.00 31 1009.6
20260507172038 67 340 0.9 8.7 0.00 0.01 0.00 34 1009.6
20260507171542 67 360 4.3 7.0 0.00 0.01 0.00 36 1009.7
20260507171041 67 54 0.9 7.0 0.00 0.01 0.00 33 1009.9
20260507170534 67 294 2.6 7.8 0.00 0.01 0.00 35 1009.9
20260507170029 67 342 2.6 9.6 0.00 0.01 0.00 37 1010.0
20260507165544 67 273 2.6 10.4 0.00 0.01 0.00 37 1010.1
20260507165031 67 317 7.0 10.4 0.00 0.01 0.00 35 1010.3
20260507164537 66 65 0.9 8.7 0.00 0.01 0.00 34 1010.3
20260507164103 67 13 4.3 10.4 0.00 0.01 0.00 39 1010.4
20260507163540 66 347 4.3 10.4 0.00 0.01 0.00 39 1010.4
20260507163040 66 5 4.3 11.3 0.00 0.01 0.00 34 1010.4
20260507162539 67 340 6.1 11.3 0.00 0.01 0.00 39 1010.5
20260507162040 66 349 2.6 8.7 0.00 0.01 0.00 39 1010.6
20260507161532 66 311 4.3 11.3 0.00 0.01 0.00 35 1010.6
20260507161026 65 321 5.2 11.3 0.00 0.01 0.00 39 1010.6
20260507160538 65 246 6.1 11.3 0.00 0.01 0.00 35 1010.7
20260507160039 65 250 4.3 8.7 0.00 0.01 0.00 37 1010.7
20260507155532 65 57 2.6 10.4 0.00 0.01 0.00 38 1010.8
20260507155053 64 295 1.7 10.4 0.00 0.01 0.00 37 1010.9
20260507154524 65 284 4.3 10.4 0.00 0.01 0.00 34 1010.9
20260507154104 64 321 5.2 8.7 0.00 0.01 0.00 39 1010.9
20260507153600 64 308 4.3 8.7 0.00 0.01 0.00 40 1011.0
20260507153039 64 346 4.3 10.4 0.00 0.01 0.00 38 1011.0
20260507152534 63 290 6.1 11.3 0.00 0.01 0.00 40 1011.0
20260507152033 63 302 3.5 14.8 0.00 0.01 0.00 39 1011.2
20260507151526 63 306 8.7 14.8 0.00 0.01 0.00 39 1011.3
20260507151103 62 331 6.1 11.3 0.00 0.01 0.00 43 1011.4
20260507150541 62 334 3.5 9.6 0.00 0.01 0.00 46 1011.5
20260507150040 62 22 0.9 7.8 0.00 0.01 0.00 44 1011.5
20260507145534 61 10 1.7 7.8 0.00 0.09 0.00 42 1011.7
20260507145030 61 5 2.6 7.8 0.00 0.09 0.00 47 1011.7
20260507144605 61 20 1.7 10.4 0.00 0.09 0.00 41 1011.8
20260507144045 61 311 7.0 11.3 0.00 0.09 0.00 46 1011.9
20260507143543 60 298 4.3 12.2 0.00 0.09 0.00 43 1012.0
20260507143043 60 329 3.5 12.2 0.00 0.09 0.00 46 1012.0
20260507142541 59 20 1.7 5.2 0.00 0.09 0.00 42 1012.1
20260507142042 59 343 1.7 5.2 0.00 0.09 0.00 45 1012.1
20260507141537 59 5 0.0 5.2 0.00 0.09 0.00 43 1012.0
20260507141032 58 360 1.7 5.2 0.00 0.09 0.00 45 1012.2
20260507140552 58 342 1.7 3.5 0.00 0.09 0.00 45 1012.2
20260507140027 57 257 0.9 3.5 0.00 0.09 0.00 46 1012.3
20260507135547 56 278 2.6 4.3 0.00 0.17 0.00 43 1012.4
20260507135046 56 286 0.9 4.3 0.00 0.17 0.00 47 1012.6
20260507134538 56 5 1.7 4.3 0.00 0.17 0.00 48 1012.6
20260507134041 56 37 1.7 4.3 0.00 0.17 0.00 47 1012.6
20260507133534 55 5 1.7 4.3 0.00 0.17 0.00 48 1012.7
20260507133035 55 23 1.7 3.5 0.00 0.17 0.00 45 1012.7
20260507132527 55 309 1.7 3.5 0.00 0.17 0.00 49 1012.7
20260507132035 55 297 0.9 3.5 0.00 0.17 0.00 49 1012.8
20260507131528 54 298 0.9 2.6 0.00 0.17 0.00 49 1012.7
20260507131049 54 342 0.9 2.6 0.00 0.17 0.00 50 1012.8
20260507130539 54 342 0.9 3.5 0.00 0.17 0.00 52 1012.7
20260507130059 54 342 0.9 3.5 0.00 0.17 0.00 53 1012.7
20260507125558 54 14 2.6 5.2 0.00 0.19 0.00 52 1012.7
20260507125033 54 329 2.6 5.2 0.00 0.19 0.00 52 1012.7
20260507124525 54 324 1.7 5.2 0.00 0.19 0.00 54 1012.6
20260507124047 53 348 2.6 5.2 0.00 0.19 0.00 56 1012.6
20260507123541 53 333 3.5 5.2 0.00 0.19 0.00 54 1012.7
20260507123042 53 334 4.3 5.2 0.00 0.19 0.00 53 1012.6
20260507122541 53 326 3.5 5.2 0.00 0.19 0.00 54 1012.7
20260507122038 53 323 1.7 5.2 0.00 0.19 0.00 57 1012.7
20260507121531 53 302 1.7 5.2 0.00 0.19 0.00 56 1012.7
20260507121027 52 288 2.6 5.2 0.00 0.19 0.00 58 1012.6
20260507120543 52 300 1.7 4.3 0.00 0.19 0.00 58 1012.6
20260507120042 52 303 1.7 3.5 0.00 0.19 0.00 60 1012.6
20260507115603 52 321 0.9 3.5 0.00 0.21 0.00 59 1012.5
20260507115101 52 321 1.7 4.3 0.00 0.21 0.00 59 1012.5
20260507114531 52 307 1.7 4.3 0.00 0.21 0.00 58 1012.6
20260507114026 52 323 2.6 3.5 0.00 0.21 0.00 59 1012.6
20260507113540 52 305 1.7 3.5 0.00 0.21 0.00 59 1012.6
20260507113059 52 304 0.9 4.3 0.00 0.21 0.00 60 1012.5
20260507112557 52 327 2.6 4.3 0.00 0.21 0.00 59 1012.4
20260507112035 52 287 1.7 2.6 0.00 0.21 0.00 60 1012.4
20260507111525 51 288 0.9 3.5 0.00 0.21 0.00 60 1012.4
20260507111044 51 288 0.9 4.3 0.00 0.21 0.00 60 1012.3
20260507110541 51 274 2.6 4.3 0.00 0.21 0.00 59 1012.2
20260507110037 51 290 1.7 2.6 0.00 0.21 0.00 61 1012.0
20260507105529 51 275 1.7 2.6 0.00 0.22 0.00 59 1012.1
20260507105025 51 297 1.7 2.6 0.00 0.22 0.00 59 1012.0
20260507104543 51 297 0.9 2.6 0.00 0.22 0.00 58 1012.0
20260507104034 51 297 0.9 3.5 0.00 0.22 0.00 58 1011.9
20260507103530 52 309 1.7 3.5 0.00 0.22 0.00 58 1011.9
20260507103025 52 297 0.0 1.7 0.00 0.22 0.00 59 1011.8
20260507102538 52 297 0.9 1.7 0.00 0.22 0.00 59 1011.7
20260507102041 52 297 0.0 2.6 0.00 0.22 0.00 58 1011.7
20260507101558 52 297 0.9 2.6 0.00 0.22 0.00 57 1011.6
20260507101033 52 289 0.9 3.5 0.00 0.22 0.00 57 1011.5
20260507100525 52 302 0.9 3.5 0.00 0.22 0.00 56 1011.5
20260507100044 52 290 1.7 2.6 0.00 0.22 0.00 57 1011.6
20260507095543 52 271 0.9 2.6 0.00 0.22 0.00 57 1011.5
20260507095104 52 316 0.9 5.2 0.00 0.22 0.00 56 1011.4
20260507094540 52 316 1.7 5.2 0.00 0.22 0.00 55 1011.4
20260507094059 52 316 1.7 5.2 0.00 0.22 0.00 54 1011.4
20260507093534 52 335 3.5 7.0 0.00 0.22 0.00 54 1011.5
20260507093026 52 316 4.3 7.0 0.00 0.22 0.00 54 1011.5
20260507092543 52 325 1.7 3.5 0.00 0.22 0.00 56 1011.4
20260507092034 52 315 0.9 3.5 0.00 0.22 0.00 56 1011.2
20260507091527 52 325 1.7 3.5 0.00 0.22 0.00 56 1011.2
20260507091105 52 306 0.9 3.5 0.00 0.22 0.00 56 1011.3
20260507090541 52 290 0.0 1.7 0.00 0.22 0.00 57 1011.2
20260507090043 52 290 0.0 2.6 0.00 0.22 0.00 57 1011.1
20260507085536 52 327 0.9 2.6 0.00 0.22 0.00 57 1011.0
20260507085030 52 327 1.7 4.3 0.00 0.22 0.00 56 1011.0
20260507084525 52 325 0.9 4.3 0.00 0.22 0.00 55 1011.0
20260507084044 53 322 1.7 2.6 0.00 0.22 0.00 56 1010.9
20260507083602 53 322 0.9 2.6 0.00 0.22 0.00 55 1011.0
20260507083040 53 347 0.9 2.6 0.00 0.22 0.00 54 1010.8
20260507082533 53 347 0.0 3.5 0.00 0.22 0.00 54 1010.9
20260507082028 53 347 0.0 3.5 0.00 0.22 0.00 54 1010.8
20260507081525 53 12 0.9 4.3 0.00 0.22 0.00 53 1011.0
20260507081043 53 5 1.7 8.7 0.00 0.22 0.00 53 1010.9
20260507080541 53 23 3.5 8.7 0.00 0.22 0.00 53 1011.0
20260507080035 53 344 0.9 4.3 0.00 0.22 0.00 55 1011.0
20260507075530 53 341 1.7 4.3 0.00 0.22 0.00 55 1011.1
20260507075027 53 11 1.7 5.2 0.00 0.22 0.00 56 1010.9
20260507074545 53 355 1.7 5.2 0.00 0.22 0.00 55 1011.0
20260507074042 53 351 1.7 3.5 0.00 0.22 0.00 55 1011.1
20260507073535 53 327 1.7 4.3 0.00 0.22 0.00 55 1011.0
20260507073030 53 345 0.9 5.2 0.00 0.22 0.00 55 1011.0
20260507072545 53 5 1.7 5.2 0.00 0.22 0.00 54 1011.0
20260507072044 54 12 1.7 7.0 0.00 0.22 0.00 55 1011.0
20260507071541 54 9 0.9 7.0 0.00 0.22 0.00 54 1011.0
20260507071041 54 355 2.6 7.8 0.00 0.22 0.00 55 1010.8
20260507070533 54 360 3.5 7.8 0.00 0.22 0.00 55 1011.0
20260507070026 54 360 3.5 7.8 0.00 0.22 0.00 56 1011.1
20260507065542 54 5 3.5 10.4 0.00 0.22 0.00 57 1011.2
20260507065041 54 325 3.5 10.4 0.00 0.22 0.00 58 1011.0
20260507064538 54 346 4.3 10.4 0.00 0.22 0.00 60 1011.0
20260507064033 54 14 4.3 10.4 0.00 0.22 0.00 62 1010.9
20260507063527 54 308 5.2 10.4 0.00 0.22 0.00 64 1010.9
20260507063044 55 306 3.5 8.7 0.00 0.22 0.00 66 1010.9
20260507062538 55 5 3.5 10.4 0.00 0.22 0.00 66 1011.0
20260507062054 55 315 5.2 10.4 0.00 0.22 0.00 67 1011.1
20260507061524 55 355 3.5 8.7 0.00 0.22 0.00 69 1011.1
20260507061044 55 325 2.6 8.7 0.00 0.22 0.00 70 1011.1
20260507060601 55 326 3.5 8.7 0.00 0.22 0.00 69 1011.1
20260507060036 55 355 3.5 9.6 0.00 0.22 0.00 70 1011.0
20260507055554 55 350 4.3 9.6 0.00 0.22 0.00 70 1011.0
20260507055031 55 348 4.3 8.7 0.00 0.22 0.00 70 1011.0
20260507054544 55 348 3.5 8.7 0.00 0.22 0.00 70 1010.9
20260507054044 55 336 3.5 7.8 0.00 0.22 0.00 70 1010.7
20260507053543 55 350 2.6 7.8 0.00 0.22 0.00 70 1010.8
20260507053040 55 350 2.6 7.8 0.00 0.22 0.00 70 1010.9
20260507052532 55 34 2.6 7.0 0.00 0.22 0.00 70 1010.9
20260507052025 55 13 3.5 7.0 0.00 0.22 0.00 70 1010.9
20260507051535 55 355 3.5 5.2 0.00 0.22 0.00 69 1010.8
20260507051028 55 5 1.7 7.0 0.00 0.22 0.00 69 1010.9
20260507050540 55 5 3.5 7.8 0.00 0.22 0.00 68 1010.8
20260507050035 55 18 2.6 9.6 0.00 0.22 0.00 68 1010.8
20260507045527 56 360 5.2 9.6 0.00 0.22 0.00 67 1010.9
20260507045047 56 15 4.3 12.2 0.00 0.22 0.00 68 1010.9
20260507044605 56 19 3.5 12.2 0.00 0.22 0.00 67 1011.0
20260507044041 56 342 5.2 10.4 0.00 0.22 0.00 67 1010.9
20260507043559 56 355 3.5 10.4 0.00 0.22 0.00 67 1010.8
20260507043032 56 5 5.2 9.6 0.00 0.22 0.00 67 1010.8
20260507042525 56 350 4.3 9.6 0.00 0.22 0.00 68 1010.9
20260507042039 56 326 3.5 10.4 0.00 0.22 0.00 68 1011.0
20260507041556 56 342 4.3 10.4 0.00 0.22 0.00 68 1011.1
20260507041054 56 9 4.3 11.3 0.00 0.22 0.00 69 1011.0
20260507040524 56 355 5.2 13.0 0.00 0.22 0.00 69 1011.0
20260507040044 56 351 8.7 13.0 0.00 0.22 0.00 69 1011.2
20260507035541 56 333 7.0 12.2 0.00 0.22 0.22 70 1011.1
20260507035040 56 340 5.2 12.2 0.00 0.22 0.22 70 1010.9
20260507034537 56 319 4.3 15.6 0.00 0.22 0.22 70 1010.8
20260507034033 56 337 7.8 15.6 0.00 0.22 0.22 70 1010.8
20260507033550 56 345 7.8 14.8 0.00 0.22 0.22 71 1010.7
20260507033049 56 311 7.0 13.0 0.00 0.22 0.22 71 1010.8
20260507032542 56 327 7.8 13.0 0.00 0.22 0.22 72 1010.8
20260507032036 57 327 7.8 12.2 0.00 0.22 0.22 73 1010.9
20260507031528 57 348 6.1 8.7 0.00 0.22 0.22 73 1011.0
20260507031045 57 343 4.3 7.8 0.00 0.22 0.22 74 1011.2
20260507030539 57 344 1.7 7.8 0.00 0.22 0.22 75 1010.9
20260507030034 57 321 4.3 7.0 0.00 0.22 0.22 76 1011.2
20260507025525 57 347 2.6 7.0 0.00 0.22 0.22 76 1010.9
20260507025105 57 310 4.3 7.0 0.00 0.22 0.22 76 1010.9
20260507024539 57 317 3.5 6.1 0.00 0.22 0.22 76 1011.0
20260507024032 57 281 1.7 9.6 0.00 0.22 0.22 76 1011.0
20260507023525 57 272 3.5 9.6 0.00 0.22 0.22 76 1010.3
20260507023037 57 13 3.5 9.6 0.00 0.22 0.22 76 1010.6
20260507022529 57 338 3.5 13.9 0.00 0.22 0.22 76 1010.8
20260507022048 57 295 3.5 13.9 0.00 0.22 0.22 76 1010.9
20260507021544 57 355 6.1 13.9 0.00 0.22 0.22 76 1011.0
20260507021041 57 324 8.7 13.9 0.00 0.22 0.22 76 1010.8
20260507020541 57 291 6.1 13.9 0.00 0.22 0.22 76 1010.9
20260507020040 57 321 9.6 15.6 0.00 0.22 0.22 76 1010.5
20260507015600 58 307 11.3 15.6 0.00 0.22 0.22 76 1010.4
20260507015057 58 323 8.7 14.8 0.00 0.22 0.22 76 1010.4
20260507014533 58 331 7.8 12.2 0.00 0.22 0.22 77 1010.4
20260507014024 58 299 7.0 14.8 0.00 0.22 0.22 77 1010.3
20260507013538 58 306 7.0 14.8 0.00 0.22 0.22 76 1010.5
20260507013041 58 315 5.2 10.4 0.00 0.22 0.22 77 1010.5
20260507012533 58 304 2.6 7.0 0.00 0.22 0.22 77 1010.4
20260507012026 58 290 3.5 7.8 0.00 0.22 0.22 76 1010.6
20260507011544 58 288 5.2 7.8 0.00 0.22 0.22 76 1010.6
20260507011043 59 300 3.5 8.7 0.00 0.22 0.22 76 1010.5
20260507010540 59 279 2.6 9.6 0.00 0.22 0.22 76 1010.5
20260507010034 59 299 5.2 9.6 0.00 0.22 0.22 76 1010.5
20260507005525 59 284 3.5 7.8 0.00 0.22 0.22 76 1010.7
20260507005104 59 260 3.5 7.8 0.00 0.22 0.22 76 1010.9